Вернуться в каталог

STARLINK-37614

АктивенСвязьSSO
NORAD 69041·PAYLOAD·🇺🇸 United States

Запущен May 6, 2026 с Vandenberg Space Force Base

Loading…

Ближайшие Пролёты (ближайшие 24 часа)

TLE

СвежийSource: CelesTrak SupGP

Эпоха: Sep 15, 2026, 03:26 UTC

1 69041C 26101S   26258.14354167 -.00024572  00000+0 -76260-3 0  2587
2 69041  97.2851 111.6778 0002290  95.3403 359.4303 15.33457068    12

Отслеживайте STARLINK-37614 в реальном времени с AllMySat

Download on the App Store